Theta_e
331 331 327 324 322 322 323 323 324 324 326 329 330 331 330 328 328 325 325 325 323 326 326 328 329 331 331 330 331 330 330 331 334
333 332 328 327 323 324 326 328 329 330 330 330 330 328 326 328 328 326 326 326 325 330 329 328 330 330 329 330 331 327 328 329 329
333 332 330 328 326 327 328 331 332 331 331 330 329 328 328 328 328 327 327 327 327 331 333 331 330 331 332 330 329 330 329 329 329
333 332 331 328 328 330 329 331 331 330 330 330 330 330 330 331 329 329 328 328 328 330 334 334 334 333 332 333 333 333 332 332 331
333 333 330 328 329 329 330 330 330 330 330 330 329 329 329 327 327 327 325 325 330 332 332 332 332 332 332 332 332 332 332 333 333
327 328 328 328 328 328 329 329 329 329 328 327 327 326 325 324 322 320 319 323 327 328 328 328 329 331 332 332 329 330 331 332 333
325 326 327 327 327 328 328 329 327 326 323 322 320 319 317 317 316 315 314 319 323 324 325 325 325 328 329 330 329 330 330 330 331
326 326 327 327 328 328 329 326 322 319 318 317 315 313 312 311 311 310 311 313 317 320 319 322 323 322 322 322 323 323 323 323 323
326 327 328 329 327 326 324 318 316 316 313 309 307 305 304 304 305 305 307 309 315 315 319 318 316 315 315 316 318 317 317 317 317
328 328 328 326 323 319 317 314 311 306 303 301 301 300 300 302 302 302 302 303 307 313 313 311 310 311 312 313 312 312 313 314 314
330 326 324 319 316 314 312 307 303 300 299 298 299 298 299 301 300 300 300 299 304 306 306 306 306 306 307 309 309 309 310 310 311
328 324 318 315 311 307 303 301 299 298 297 297 297 296 297 299 297 296 296 296 296 297 301 300 300 300 302 304 305 306 307 307 307
323 320 319 310 304 302 300 298 297 297 297 297 296 296 296 299 296 295 295 295 294 294 294 293 293 296 298 300 302 303 304 304 304
321 315 308 304 302 301 299 297 296 296 296 297 296 296 296 298 295 294 294 294 293 293 292 291 291 290 294 296 298 300 300 301 302
314 305 304 302 302 299 297 295 294 293 294 295 295 296 296 297 295 294 292 292 292 292 291 291 290 290 290 294 295 296 297 298 299
305 303 303 301 300 297 295 294 293 292 292 293 295 294 293 295 297 293 292 292 292 291 291 290 289 289 289 289 291 294 295 296 298
302 304 302 300 297 295 294 293 292 291 291 292 292 295 295 293 293 292 292 291 291 290 290 289 288 288 289 289 290 291 292 294 296
302 302 300 297 296 294 292 292 291 292 290 291 292 294 294 292 292 292 291 291 289 289 288 288 287 287 288 288 289 289 291 292 294
299 299 298 296 294 292 291 290 290 290 291 290 289 289 290 292 292 290 290 288 288 287 287 287 287 287 287 287 288 288 290 292 293
297 297 296 294 292 291 290 290 289 289 289 289 289 288 289 288 289 290 290 288 288 287 287 286 286 286 287 287 287 288 289 290 292
Wind_Speed
7 5 2 4 6 7 7 6 5 5 4 4 4 5 6 6 7 7 7 8 7 7 8 8 7 7 9 9 8 8 10 10 11
8 5 1 2 4 5 5 5 5 5 5 5 4 4 5 5 6 7 8 8 8 7 7 8 9 10 11 12 11 11 11 12 12
9 9 2 2 3 4 4 4 5 5 5 5 5 5 5 5 7 8 8 8 8 8 8 9 10 12 13 13 14 13 13 13 15
8 7 3 2 2 3 3 4 5 5 6 6 6 6 6 6 7 8 8 9 8 8 10 12 12 13 14 15 16 16 15 15 15
6 5 3 2 1 1 3 4 5 6 6 7 7 7 5 6 5 4 6 8 8 9 8 7 8 10 13 17 18 18 18 17 18
4 5 4 2 1 1 3 4 5 5 5 7 7 6 5 4 4 5 6 7 8 8 9 9 10 10 10 12 10 12 17 19 21
6 5 4 2 1 2 4 3 4 4 4 4 4 5 5 5 5 5 5 6 7 8 8 9 9 10 12 13 13 11 10 8 6
6 4 2 1 3 3 0 1 3 5 4 4 4 5 5 5 4 4 3 5 8 7 8 8 11 11 12 12 11 11 10 9 9
5 5 3 2 3 4 1 3 5 4 5 5 5 5 6 4 3 3 4 2 6 8 7 9 11 11 11 10 10 10 10 10 10
7 6 6 4 3 1 3 3 4 5 5 5 5 6 5 3 2 2 2 3 6 9 9 9 11 11 11 9 11 11 10 10 10
10 10 7 5 3 1 2 3 4 5 6 6 5 6 4 2 1 1 2 3 6 9 10 10 11 12 11 11 12 12 11 11 11
13 12 9 5 3 2 3 3 5 6 7 7 5 5 3 0 2 3 4 4 4 5 8 12 13 14 14 14 14 13 13 13 14
15 13 10 5 4 3 4 5 6 9 11 11 8 7 5 5 2 3 4 5 6 6 6 10 15 16 16 16 16 15 15 17 18
15 14 11 7 5 5 5 7 8 11 13 11 10 13 3 7 4 3 6 7 8 9 9 13 19 21 18 18 17 15 17 20 19
17 15 12 9 6 6 5 7 8 11 14 10 13 4 2 6 4 1 13 8 7 11 14 19 24 28 23 18 17 17 21 22 21
17 15 12 9 6 7 7 4 8 12 17 10 9 4 4 2 5 9 11 7 12 14 18 21 26 24 23 22 21 20 23 23 22
16 14 12 9 8 7 8 8 5 8 15 7 2 4 3 3 14 8 7 14 11 21 21 26 24 22 22 21 22 22 22 22 23
15 13 11 10 7 8 8 8 8 6 10 12 6 2 2 8 6 11 10 8 15 20 20 20 22 20 20 20 20 20 23 24 27
15 13 11 9 8 8 7 8 8 7 6 3 6 2 3 3 5 4 10 7 20 18 19 21 19 19 17 19 21 24 24 26 29
15 12 10 9 8 7 7 6 6 7 4 3 3 2 5 5 6 9 10 22 20 20 18 21 17 17 18 19 20 23 28 29 30
Wind_Direction
162 147 107 67 74 73 72 66 50 43 33 16 359 338 328 334 330 350 347 331 327 313 294 279 287 253 263 266 271 270 270 268 261
196 184 173 72 68 59 50 32 14 11 7 355 344 330 322 329 329 342 340 340 340 324 304 281 274 267 267 265 263 269 268 267 267
188 201 194 71 50 35 23 15 3 4 7 9 6 352 349 335 334 337 333 333 327 314 299 282 270 266 265 258 260 262 264 263 265
163 179 173 110 54 14 5 7 17 14 11 348 332 315 310 308 311 317 317 315 313 303 289 283 276 272 266 265 262 257 261 264 265
143 164 159 129 96 45 25 17 6 349 343 330 323 323 321 334 320 339 348 348 333 331 333 328 345 324 288 276 267 261 261 263 264
177 169 172 181 152 14 3 354 349 357 2 336 337 342 355 356 10 8 359 2 360 354 4 10 5 353 338 321 318 295 275 268 270
175 161 173 201 269 292 322 328 8 347 344 7 6 19 14 1 358 357 358 10 16 16 21 12 7 25 29 39 41 39 34 30 10
185 180 181 261 272 267 103 114 20 6 12 353 339 343 335 334 335 345 327 356 9 22 18 31 41 32 28 27 27 29 27 22 12
164 149 128 100 105 115 119 6 25 353 339 338 341 343 338 330 336 343 338 2 42 32 45 49 34 19 11 11 18 14 7 360 360
157 145 155 130 137 92 25 8 359 356 353 344 343 347 346 326 338 16 16 16 46 59 52 37 24 18 10 7 359 353 348 344 341
168 161 160 152 161 76 18 0 8 5 2 356 350 356 354 339 16 63 46 47 70 56 46 33 19 9 2 350 343 339 334 330 324
171 165 152 146 128 67 40 6 6 2 4 5 356 359 345 217 110 78 78 62 43 27 35 24 11 0 350 341 336 328 323 318 313
173 159 151 136 108 76 37 21 3 4 358 354 351 336 316 215 165 88 65 35 27 19 1 359 357 354 344 335 328 320 318 315 310
166 154 133 132 109 66 35 21 13 5 357 350 344 330 293 190 147 92 31 359 358 1 348 342 343 341 337 329 323 315 314 313 308
160 142 133 123 95 70 54 40 28 18 360 353 347 23 56 193 201 328 348 315 329 347 341 340 339 334 331 328 324 314 313 311 305
154 140 130 116 99 80 64 57 39 24 15 6 359 5 352 265 238 304 331 347 327 336 338 334 330 328 329 322 319 311 311 309 303
148 138 126 112 99 86 68 58 52 37 32 25 22 3 342 12 326 300 316 319 329 319 320 324 326 324 319 317 316 310 308 308 302
142 132 122 113 99 88 75 60 58 59 44 51 40 343 327 328 306 306 306 312 321 320 319 321 319 316 316 315 315 314 309 304 301
138 129 121 112 103 97 80 62 54 52 49 44 32 60 276 319 310 282 289 291 312 311 312 315 311 314 312 311 310 310 308 305 300
136 128 121 118 113 97 80 67 53 48 52 32 356 345 306 263 256 302 302 308 311 310 312 308 311 311 311 311 313 310 305 303 298